Regional Weather Roundup
Issued by NWS

Home | Current Version | Previous Version | Graphics & Text | Print | Product List | Glossary On
Versions: 1 2 3 4 5 6 7 8 9 10 11 12 13 14 15 16 17 18 19 20 21 22 23 24 25 26 27 28 29 30 31 32 33 34 35 36 37 38 39 40 41 42 43 44 45 46 47 48 49 50
000
ASUS45 KBOU 191507
RWRCO

WEATHER ROUNDUP FOR COLORADO
NATIONAL WEATHER SERVICE DENVER/BOULDER CO
900 AM MDT SUN APR 19 2015

NOTE: "FAIR" INDICATES FEW OR NO CLOUDS BELOW 12000 FEET WITH NO
SIGNIFICANT WEATHER AND/OR OBSTRUCTIONS TO VISIBILITY.

COZ001>005-013-030-031-191600-
...NORTHWEST COLORADO...

CITY           SKY/WX    TMP DP  RH WIND       PRES   REMARKS
CRAIG          LGT RAIN  36  32  85 S3        30.18S
HAYDEN         CLOUDY    34  30  86 CALM      30.18S
MEEKER         CLOUDY    37  33  85 CALM      30.18R
MOUNT WERNER   NOT AVBL
STEAMBOAT SPGS CLOUDY    32  31  94 CALM      30.16S
WALDEN         MOSUNNY   30  23  74 NW10      30.17R WCI  21
$$

COZ006>008-011-191600-
...WEST CENTRAL VALLEYS...

CITY           SKY/WX    TMP DP  RH WIND       PRES   REMARKS
GRAND JUNCTION MOSUNNY   43  38  82 E8        30.15S
MONTROSE       PTSUNNY   41  37  86 SE5       30.21R
EAGLE          PTSUNNY   37  36  93 CALM      30.18R
RIFLE          CLOUDY    34  33  96 SE6       30.16F FOG     WCI  29
DELTA          CLOUDY    38  38  99 NE6       30.19F VSB 1/4
NUCLA          MOSUNNY   43  34  70 SE8       30.20S
$$

COZ017>023-064>068-191600-
...SOUTHWEST COLORADO...

CITY           SKY/WX    TMP DP  RH WIND       PRES   REMARKS
DURANGO        SUNNY     41  26  55 CALM      30.10R
CORTEZ         SUNNY     44  32  62 CALM      30.12S
PAGOSA SPRINGS SUNNY     42  19  40 SW3       30.12R
TELLURIDE      CLOUDY    31  26  84 CALM      30.22R
WOLF CREEK PAS SUNNY     23  12  63 E18G24    30.19R WCI   9
$$

COZ009-010-012-014-032>034-037-058>063-191600-
...CENTRAL COLORADO...

CITY           SKY/WX    TMP DP  RH WIND       PRES   REMARKS
ASPEN          CLOUDY    33  29  85 CALM      30.14F
BUENA VISTA    MOSUNNY   26  18  70 CALM      30.14F
COPPER MTN     CLOUDY    25  19  80 W14G21    30.15S WCI  13
BERTHOUD PASS  CLOUDY    14   5  67 NW26      30.12F WCI  -6
COTTONWOOD PAS PTSUNNY   34  19  55 NW3       30.14S
GUNNISON       MOSUNNY   30  25  80 N5        30.20S WCI  25
KREMMLING      CLOUDY    34  23  64 NW3       30.17S
LEADVILLE      MOSUNNY   29  18  63 N7        30.12S WCI  22
SALIDA         MOSUNNY   33  24  71 CALM      30.22S
SUNLIGHT       FOG      N/A N/A N/A CALM      30.22S VSB<1/4
WILKERSON PASS CLOUDY    23  21  93 W3        30.16R FOG
$$

COZ069>075-191600-
...SAN LUIS VALLEY/SANGRE DE CRISTO MOUNTAINS...

CITY           SKY/WX    TMP DP  RH WIND       PRES   REMARKS
ALAMOSA        SUNNY     42  24  49 N12       30.12R
LA VETA PASS   FOG       27  23  86 NE3       30.14S VSB<1/4
SAGUACHE       MOSUNNY   39  27  60 N17G23    30.14R
$$

COZ035-036-038>040-191600-
...NORTHERN COLORADO FRONT RANGE...

CITY           SKY/WX    TMP DP  RH WIND       PRES   REMARKS
DENVER INTL AP PTSUNNY   40  26  57 N21G28    30.14R
DMNS CITY PARK   N/A     39  25  56 N7G17     30.15F
AURORA         NOT AVBL
FRONT RANGE AP PTSUNNY   39  28  65 N20G26    30.14S
ERIE MUNI ARPT CLOUDY    42  28  59 N12       30.15S
BOULDER MUN AP CLOUDY    39  30  70 SE5       30.14F
CENTENNIAL     PTSUNNY   35  26  69 N14       30.16R WCI  26
BROOMFIELD     PTSUNNY   39  28  65 N6        30.16S
FORT COLLINS   MOSUNNY   39  25  56 N18G24    30.15S
LONGMONT       CLOUDY    44  30  58 S6        30.16F
$$

COZ041-046-047-076>085-087-088-191600-
...PIKES PEAK/PALMER DIVIDE AND SOUTHERN FOOTHILLS...

CITY           SKY/WX    TMP DP  RH WIND       PRES   REMARKS
COLO. SPRINGS  PTSUNNY   39  26  59 N22G31    30.15S
A. F. ACADEMY  MIX PCPN  32  27  80 N17       30.15R WCI  21
ELLICOTT       PTSUNNY  N/A N/A N/A N29G37    30.11R
FALCON         PTSUNNY   34  26  70 N18G29    30.14S WCI  23
FORT CARSON    NOT AVBL
LIMON          MOSUNNY   38  31  76 N25G37    30.10R
MONUMENT HILL  CLOUDY    30  25  80 N18       30.13R WCI  18
TRINIDAD       CLOUDY    41  31  67 N16G28    30.13R
$$

COZ042>045-048>051-090-091-191600-
...NORTHEAST COLORADO...

CITY           SKY/WX    TMP DP  RH WIND       PRES   REMARKS
GREELEY ARPT   PTSUNNY   43  25  49 N28       30.14F
AKRON          MOSUNNY   41  29  62 N29G35    30.09S
BURLINGTON     CLOUDY    42  34  73 N22G33    30.04R
WRAY           PTSUNNY   46  35  64 N24G36    30.06R
STERLING       MOSUNNY   45  32  61 N24G31    30.09S
HOLYOKE        PTSUNNY   46  32  57 N26G38    30.05S
FORT MORGAN    MOSUNNY   43  27  52 N21G26    30.13F
$$

COZ086-089-092>099-191600-
...SOUTHEAST COLORADO...

CITY           SKY/WX    TMP DP  RH WIND       PRES   REMARKS
PUEBLO         MOSUNNY   46  27  47 N31G40    30.11S
LA JUNTA       CLOUDY    45  36  70 N31G37    30.11R
LAMAR          CLOUDY    44  36  73 N33G43    30.04R
SPRINGFIELD      N/A     41  39  93 N41G51    29.98R
$$



USA.gov is the U.S. government's official web portal to all federal, state and local government web resources and services.